Year,Month,Day,Hour,Minute,Value (Times are PST for temperature in C)
2018,09,28,00,00,11.20
2018,09,28,00,01,11.20
2018,09,28,00,02,11.20
2018,09,28,00,03,11.20
2018,09,28,00,04,11.20
2018,09,28,00,05,11.20
2018,09,28,00,06,11.20
2018,09,28,00,07,11.10
2018,09,28,00,08,11.10
2018,09,28,00,09,11.10
2018,09,28,00,10,11.10
2018,09,28,00,11,11.10
2018,09,28,00,12,11.10
2018,09,28,00,13,11.10
2018,09,28,00,14,11.10
2018,09,28,00,15,11.10
2018,09,28,00,16,11.10
2018,09,28,00,17,11.10
2018,09,28,00,18,11.10
2018,09,28,00,19,11.10
2018,09,28,00,20,11.10
2018,09,28,00,21,11.10
2018,09,28,00,22,11.00
2018,09,28,00,23,11.00
2018,09,28,00,24,11.00
2018,09,28,00,25,10.90
2018,09,28,00,26,10.90
2018,09,28,00,27,11.00
2018,09,28,00,28,10.90
2018,09,28,00,29,10.90
2018,09,28,00,30,10.90
2018,09,28,00,31,10.90
2018,09,28,00,32,10.90
2018,09,28,00,33,10.90
2018,09,28,00,34,10.90
2018,09,28,00,35,10.90
2018,09,28,00,36,10.90
2018,09,28,00,37,10.90
2018,09,28,00,38,10.90
2018,09,28,00,39,10.80
2018,09,28,00,40,10.90
2018,09,28,00,41,10.90
2018,09,28,00,42,10.90
2018,09,28,00,43,10.90
2018,09,28,00,44,10.90
2018,09,28,00,45,10.90
2018,09,28,00,46,10.90
2018,09,28,00,47,10.90
2018,09,28,00,48,10.90
2018,09,28,00,49,10.90
2018,09,28,00,50,10.90
2018,09,28,00,51,10.90
2018,09,28,00,52,10.80
2018,09,28,00,53,10.80
2018,09,28,00,54,10.80
2018,09,28,00,55,10.80
2018,09,28,00,56,10.80
2018,09,28,00,57,10.80
2018,09,28,00,58,10.80
2018,09,28,00,59,10.80
2018,09,28,01,00,10.80
2018,09,28,01,01,10.80
2018,09,28,01,02,10.80
2018,09,28,01,03,10.80
2018,09,28,01,04,10.80
2018,09,28,01,05,10.80
2018,09,28,01,06,10.80
2018,09,28,01,07,10.80
2018,09,28,01,08,10.80
2018,09,28,01,09,10.70
2018,09,28,01,10,10.70
2018,09,28,01,11,10.70
2018,09,28,01,12,10.80
2018,09,28,01,13,10.80
2018,09,28,01,14,10.80
2018,09,28,01,15,10.80
2018,09,28,01,16,10.80
2018,09,28,01,17,10.80
2018,09,28,01,18,10.80
2018,09,28,01,19,10.80
2018,09,28,01,20,10.80
2018,09,28,01,21,10.70
2018,09,28,01,22,10.70
2018,09,28,01,23,10.70
2018,09,28,01,24,10.80
2018,09,28,01,25,10.80
2018,09,28,01,26,10.80
2018,09,28,01,27,10.80
2018,09,28,01,28,10.80
2018,09,28,01,29,10.80
2018,09,28,01,30,10.80
2018,09,28,01,31,10.80
2018,09,28,01,32,10.70
2018,09,28,01,33,10.70
2018,09,28,01,34,10.70
2018,09,28,01,35,10.70
2018,09,28,01,36,10.70
2018,09,28,01,37,10.70
2018,09,28,01,38,10.70
2018,09,28,01,39,10.70
2018,09,28,01,40,10.60
2018,09,28,01,41,10.60
2018,09,28,01,42,10.60
2018,09,28,01,43,10.60
2018,09,28,01,44,10.60
2018,09,28,01,45,10.60
2018,09,28,01,46,10.60
2018,09,28,01,47,10.60
2018,09,28,01,48,10.60
2018,09,28,01,49,10.60
2018,09,28,01,50,10.60
2018,09,28,01,51,10.60
2018,09,28,01,52,10.60
2018,09,28,01,53,10.60
2018,09,28,01,54,10.60
2018,09,28,01,55,10.60
2018,09,28,01,56,10.60
2018,09,28,01,57,10.60
2018,09,28,01,58,10.60
2018,09,28,01,59,10.60
2018,09,28,02,00,10.60
2018,09,28,02,01,10.60
2018,09,28,02,02,10.60
2018,09,28,02,03,10.60
2018,09,28,02,04,10.60
2018,09,28,02,05,10.60
2018,09,28,02,06,10.60
2018,09,28,02,07,10.60
2018,09,28,02,08,10.60
2018,09,28,02,09,10.60
2018,09,28,02,10,10.50
2018,09,28,02,11,10.50
2018,09,28,02,12,10.50
2018,09,28,02,13,10.50
2018,09,28,02,14,10.50
2018,09,28,02,15,10.50
2018,09,28,02,16,10.50
2018,09,28,02,17,10.50
2018,09,28,02,18,10.60
2018,09,28,02,19,10.60
2018,09,28,02,20,10.60
2018,09,28,02,21,10.50
2018,09,28,02,22,10.50
2018,09,28,02,23,10.50
2018,09,28,02,24,10.50
2018,09,28,02,25,10.50
2018,09,28,02,26,10.50
2018,09,28,02,27,10.50
2018,09,28,02,28,10.50
2018,09,28,02,29,10.60
2018,09,28,02,30,10.60
2018,09,28,02,31,10.60
2018,09,28,02,32,10.60
2018,09,28,02,33,10.60
2018,09,28,02,34,10.60
2018,09,28,02,35,10.60
2018,09,28,02,36,10.60
2018,09,28,02,37,10.60
2018,09,28,02,38,10.50
2018,09,28,02,39,10.50
2018,09,28,02,40,10.50
2018,09,28,02,41,10.50
2018,09,28,02,42,10.50
2018,09,28,02,43,10.50
2018,09,28,02,44,10.50
2018,09,28,02,45,10.50
2018,09,28,02,46,10.50
2018,09,28,02,47,10.50
2018,09,28,02,48,10.50
2018,09,28,02,49,10.50
2018,09,28,02,50,10.60
2018,09,28,02,51,10.60
2018,09,28,02,52,10.60
2018,09,28,02,53,10.60
2018,09,28,02,54,10.70
2018,09,28,02,55,10.70
2018,09,28,02,56,10.70
2018,09,28,02,57,10.70
2018,09,28,02,58,10.70
2018,09,28,02,59,10.70
2018,09,28,03,00,10.70
2018,09,28,03,01,10.70
2018,09,28,03,02,10.70
2018,09,28,03,03,10.70
2018,09,28,03,04,10.70
2018,09,28,03,05,10.70
2018,09,28,03,06,10.70
2018,09,28,03,07,10.70
2018,09,28,03,08,10.60
2018,09,28,03,09,10.60
2018,09,28,03,10,10.60
2018,09,28,03,11,10.60
2018,09,28,03,12,10.60
2018,09,28,03,13,10.60
2018,09,28,03,14,10.60
2018,09,28,03,15,10.60
2018,09,28,03,16,10.60
2018,09,28,03,17,10.60
2018,09,28,03,18,10.60
2018,09,28,03,19,10.60
2018,09,28,03,20,10.60
2018,09,28,03,21,10.60
2018,09,28,03,22,10.60
2018,09,28,03,23,10.60
2018,09,28,03,24,10.70
2018,09,28,03,25,10.70
2018,09,28,03,26,10.70
2018,09,28,03,27,10.70
2018,09,28,03,28,10.60
2018,09,28,03,29,10.60
2018,09,28,03,30,10.60
2018,09,28,03,31,10.60
2018,09,28,03,32,10.60
2018,09,28,03,33,10.60
2018,09,28,03,34,10.60
2018,09,28,03,35,10.50
2018,09,28,03,36,10.50
2018,09,28,03,37,10.50
2018,09,28,03,38,10.50
2018,09,28,03,39,10.40
2018,09,28,03,40,10.40
2018,09,28,03,41,10.40
2018,09,28,03,42,10.30
2018,09,28,03,43,10.30
2018,09,28,03,44,10.30
2018,09,28,03,45,10.30
2018,09,28,03,46,10.30
2018,09,28,03,47,10.30
2018,09,28,03,48,10.30
2018,09,28,03,49,10.20
2018,09,28,03,50,10.20
2018,09,28,03,51,10.20
2018,09,28,03,52,10.20
2018,09,28,03,53,10.20
2018,09,28,03,54,10.20
2018,09,28,03,55,10.20
2018,09,28,03,56,10.20
2018,09,28,03,57,10.20
2018,09,28,03,58,10.10
2018,09,28,03,59,10.10
2018,09,28,04,00,10.10
2018,09,28,04,01,10.10
2018,09,28,04,02,10.10
2018,09,28,04,03,10.10
2018,09,28,04,04,10.10
2018,09,28,04,05,10.10
2018,09,28,04,06,10.10
2018,09,28,04,07,10.10
2018,09,28,04,08,10.10
2018,09,28,04,09,10.10
2018,09,28,04,10,10.10
2018,09,28,04,11,10.10
2018,09,28,04,12,10.00
2018,09,28,04,13,10.00
2018,09,28,04,14,10.00
2018,09,28,04,15,10.00
2018,09,28,04,16,10.00
2018,09,28,04,17,9.90
2018,09,28,04,18,9.90
2018,09,28,04,19,9.90
2018,09,28,04,20,9.90
2018,09,28,04,21,9.90
2018,09,28,04,22,9.90
2018,09,28,04,23,9.90
2018,09,28,04,24,9.90
2018,09,28,04,25,9.90
2018,09,28,04,26,9.90
2018,09,28,04,27,9.90
2018,09,28,04,28,9.90
2018,09,28,04,29,9.90
2018,09,28,04,30,9.90
2018,09,28,04,31,9.90
2018,09,28,04,32,9.90
2018,09,28,04,33,9.90
2018,09,28,04,34,9.90
2018,09,28,04,35,9.90
2018,09,28,04,36,9.90
2018,09,28,04,37,9.90
2018,09,28,04,38,9.90
2018,09,28,04,39,10.00
2018,09,28,04,40,10.00
2018,09,28,04,41,10.00
2018,09,28,04,42,10.10
2018,09,28,04,43,10.10
2018,09,28,04,44,10.10
2018,09,28,04,45,10.10
2018,09,28,04,46,10.10
2018,09,28,04,47,10.10
2018,09,28,04,48,10.10
2018,09,28,04,49,10.10
2018,09,28,04,50,10.10
2018,09,28,04,51,10.00
2018,09,28,04,52,10.00
2018,09,28,04,53,10.00
2018,09,28,04,54,10.00
2018,09,28,04,55,10.00
2018,09,28,04,56,10.00
2018,09,28,04,57,9.90
2018,09,28,04,58,10.00
2018,09,28,04,59,9.90
2018,09,28,05,00,9.90
2018,09,28,05,01,10.00
2018,09,28,05,02,10.00
2018,09,28,05,03,10.00
2018,09,28,05,04,10.00
2018,09,28,05,05,10.10
2018,09,28,05,06,10.20
2018,09,28,05,07,10.20
2018,09,28,05,08,10.20
2018,09,28,05,09,10.30
2018,09,28,05,10,10.30
2018,09,28,05,11,10.40
2018,09,28,05,12,10.40
2018,09,28,05,13,10.60
2018,09,28,05,14,10.60
2018,09,28,05,15,10.70
2018,09,28,05,16,10.80
2018,09,28,05,17,10.80
2018,09,28,05,18,10.90
2018,09,28,05,19,11.00
2018,09,28,05,20,11.20
2018,09,28,05,21,11.40
2018,09,28,05,22,11.60
2018,09,28,05,23,11.70
2018,09,28,05,24,11.90
2018,09,28,05,25,12.10
2018,09,28,05,26,12.20
2018,09,28,05,27,12.50
2018,09,28,05,28,12.70
2018,09,28,05,29,12.90
2018,09,28,05,30,13.10
2018,09,28,05,31,13.20
2018,09,28,05,32,13.40
2018,09,28,05,33,13.50
2018,09,28,05,34,13.60
2018,09,28,05,35,13.70
2018,09,28,05,36,13.80
2018,09,28,05,37,13.90
2018,09,28,05,38,14.00
2018,09,28,05,39,14.10
2018,09,28,05,40,14.20
2018,09,28,05,41,14.20
2018,09,28,05,42,14.30
2018,09,28,05,43,14.40
2018,09,28,05,44,14.50
2018,09,28,05,45,14.60
2018,09,28,05,46,14.70
2018,09,28,05,47,14.80
2018,09,28,05,48,14.90
2018,09,28,05,49,14.90
2018,09,28,05,50,15.00
2018,09,28,05,51,15.10
2018,09,28,05,52,15.10
2018,09,28,05,53,15.20
2018,09,28,05,54,15.20
2018,09,28,05,55,15.20
2018,09,28,05,56,15.20
2018,09,28,05,57,15.20
2018,09,28,05,58,15.20
2018,09,28,05,59,15.30
2018,09,28,06,00,15.30
2018,09,28,06,01,15.40
2018,09,28,06,02,15.40
2018,09,28,06,03,15.40
2018,09,28,06,04,15.30
2018,09,28,06,05,15.30
2018,09,28,06,06,15.30
2018,09,28,06,07,15.40
2018,09,28,06,08,15.40
2018,09,28,06,09,15.40
2018,09,28,06,10,15.50
2018,09,28,06,11,15.60
2018,09,28,06,12,15.60
2018,09,28,06,13,15.70
2018,09,28,06,14,15.70
2018,09,28,06,15,15.70
2018,09,28,06,16,15.80
2018,09,28,06,17,15.80
2018,09,28,06,18,15.80
2018,09,28,06,19,15.90
2018,09,28,06,20,15.90
2018,09,28,06,21,15.90
2018,09,28,06,22,16.00
2018,09,28,06,23,16.00
2018,09,28,06,24,16.00
2018,09,28,06,25,16.00
2018,09,28,06,26,16.10
2018,09,28,06,27,16.10
2018,09,28,06,28,16.10
2018,09,28,06,29,16.10
2018,09,28,06,30,16.10
2018,09,28,06,31,16.10
2018,09,28,06,32,16.10
2018,09,28,06,33,16.10
2018,09,28,06,34,16.10
2018,09,28,06,35,16.00
2018,09,28,06,36,16.00
2018,09,28,06,37,16.00
2018,09,28,06,38,15.90
2018,09,28,06,39,15.90
2018,09,28,06,40,15.90
2018,09,28,06,41,15.90
2018,09,28,06,42,15.80
2018,09,28,06,43,15.80
2018,09,28,06,44,15.80
2018,09,28,06,45,15.80
2018,09,28,06,46,15.80
2018,09,28,06,47,15.80
2018,09,28,06,48,15.80
2018,09,28,06,49,15.70
2018,09,28,06,50,15.70
2018,09,28,06,51,15.80
2018,09,28,06,52,15.80
2018,09,28,06,53,15.80
2018,09,28,06,54,15.80
2018,09,28,06,55,15.80
2018,09,28,06,56,15.80
2018,09,28,06,57,15.80
2018,09,28,06,58,15.80
2018,09,28,06,59,15.70
2018,09,28,07,00,15.70
2018,09,28,07,01,15.70
2018,09,28,07,02,15.70
2018,09,28,07,03,15.80
2018,09,28,07,04,15.80
2018,09,28,07,05,15.80
2018,09,28,07,06,15.80
2018,09,28,07,07,15.80
2018,09,28,07,08,15.90
2018,09,28,07,09,15.90
2018,09,28,07,10,15.90
2018,09,28,07,11,15.90
2018,09,28,07,12,15.90
2018,09,28,07,13,15.90
2018,09,28,07,14,16.00
2018,09,28,07,15,16.00
2018,09,28,07,16,16.10
2018,09,28,07,17,16.10
2018,09,28,07,18,16.20
2018,09,28,07,19,16.30
2018,09,28,07,20,16.30
2018,09,28,07,21,16.30
2018,09,28,07,22,16.40
2018,09,28,07,23,16.40
2018,09,28,07,24,16.40
2018,09,28,07,25,16.50
2018,09,28,07,26,16.50
2018,09,28,07,27,16.60
2018,09,28,07,28,16.60
2018,09,28,07,29,16.60
2018,09,28,07,30,16.60
2018,09,28,07,31,16.60
2018,09,28,07,32,16.60
2018,09,28,07,33,16.70
2018,09,28,07,34,16.70
2018,09,28,07,35,16.60
2018,09,28,07,36,16.70
2018,09,28,07,37,16.70
2018,09,28,07,38,16.70
2018,09,28,07,39,16.70
2018,09,28,07,40,16.70
2018,09,28,07,41,16.70
2018,09,28,07,42,16.70
2018,09,28,07,43,16.70
2018,09,28,07,44,16.80
2018,09,28,07,45,16.80
2018,09,28,07,46,16.80
2018,09,28,07,47,16.80
2018,09,28,07,48,16.80
2018,09,28,07,49,16.90
2018,09,28,07,50,16.90
2018,09,28,07,51,16.90
2018,09,28,07,52,16.90
2018,09,28,07,53,17.00
2018,09,28,07,54,17.00
2018,09,28,07,55,17.00
2018,09,28,07,56,17.00
2018,09,28,07,57,17.00
2018,09,28,07,58,17.00
2018,09,28,07,59,17.00
2018,09,28,08,00,17.00
2018,09,28,08,01,17.00
2018,09,28,08,02,17.00
2018,09,28,08,03,17.00
2018,09,28,08,04,17.00
2018,09,28,08,05,17.00
2018,09,28,08,06,17.10
2018,09,28,08,07,17.10
2018,09,28,08,08,17.10
2018,09,28,08,09,17.20
2018,09,28,08,10,17.20
2018,09,28,08,11,17.20
2018,09,28,08,12,17.30
2018,09,28,08,13,17.30
2018,09,28,08,14,17.30
2018,09,28,08,15,17.30
2018,09,28,08,16,17.30
2018,09,28,08,17,17.40
2018,09,28,08,18,17.40
2018,09,28,08,19,17.40
2018,09,28,08,20,17.40
2018,09,28,08,21,17.40
2018,09,28,08,22,17.40
2018,09,28,08,23,17.40
2018,09,28,08,24,17.40
2018,09,28,08,25,17.40
2018,09,28,08,26,17.50
2018,09,28,08,27,17.50
2018,09,28,08,28,17.50
2018,09,28,08,29,17.60
2018,09,28,08,30,17.60
2018,09,28,08,31,17.70
2018,09,28,08,32,17.70
2018,09,28,08,33,17.70
2018,09,28,08,34,17.70
2018,09,28,08,35,17.80
2018,09,28,08,36,17.80
2018,09,28,08,37,17.80
2018,09,28,08,38,17.90
2018,09,28,08,39,17.90
2018,09,28,08,40,18.00
2018,09,28,08,41,18.00
2018,09,28,08,42,18.10
2018,09,28,08,43,18.10
2018,09,28,08,44,18.10
2018,09,28,08,45,18.20
2018,09,28,08,46,18.20
2018,09,28,08,47,18.20
2018,09,28,08,48,18.20
2018,09,28,08,49,18.30
2018,09,28,08,50,18.30
2018,09,28,08,51,18.30
2018,09,28,08,52,18.30
2018,09,28,08,53,18.40
2018,09,28,08,54,18.40
2018,09,28,08,55,18.40
2018,09,28,08,56,18.50
2018,09,28,08,57,18.50
2018,09,28,08,58,18.60
2018,09,28,08,59,18.60
2018,09,28,09,00,18.60
2018,09,28,09,01,18.70
2018,09,28,09,02,18.70
2018,09,28,09,03,18.70
2018,09,28,09,04,18.80
2018,09,28,09,05,18.80
2018,09,28,09,06,18.80
2018,09,28,09,07,18.90
2018,09,28,09,08,18.90
2018,09,28,09,09,18.90
2018,09,28,09,10,18.90
2018,09,28,09,11,19.00
2018,09,28,09,12,19.00
2018,09,28,09,13,19.00
2018,09,28,09,14,19.10
2018,09,28,09,15,19.10
2018,09,28,09,16,19.10
2018,09,28,09,17,19.10
2018,09,28,09,18,19.20
2018,09,28,09,19,19.20
2018,09,28,09,20,19.20
2018,09,28,09,21,19.20
2018,09,28,09,22,19.20
2018,09,28,09,23,19.20
2018,09,28,09,24,19.30
2018,09,28,09,25,19.30
2018,09,28,09,26,19.30
2018,09,28,09,27,19.30
2018,09,28,09,28,19.30
2018,09,28,09,29,19.30
2018,09,28,09,30,19.30
2018,09,28,09,31,19.40
2018,09,28,09,32,19.40
2018,09,28,09,33,19.40
2018,09,28,09,34,19.40
2018,09,28,09,35,19.50
2018,09,28,09,36,19.50
2018,09,28,09,37,19.50
2018,09,28,09,38,19.60
2018,09,28,09,39,19.60
2018,09,28,09,40,19.60
2018,09,28,09,41,19.60
2018,09,28,09,42,19.60
2018,09,28,09,43,19.60
2018,09,28,09,44,19.60
2018,09,28,09,45,19.60
2018,09,28,09,46,19.60
2018,09,28,09,47,19.60
2018,09,28,09,48,19.60
2018,09,28,09,49,19.60
2018,09,28,09,50,19.60
2018,09,28,09,51,19.60
2018,09,28,09,52,19.60
2018,09,28,09,53,19.70
2018,09,28,09,54,19.70
2018,09,28,09,55,19.70
2018,09,28,09,56,19.70
2018,09,28,09,57,19.60
2018,09,28,09,58,19.70
2018,09,28,09,59,19.70
2018,09,28,10,00,19.70
2018,09,28,10,01,19.70
2018,09,28,10,02,19.70
2018,09,28,10,03,19.70
2018,09,28,10,04,19.70
2018,09,28,10,05,19.70
2018,09,28,10,06,19.70
2018,09,28,10,07,19.70
2018,09,28,10,08,19.80
2018,09,28,10,09,19.80
2018,09,28,10,10,19.90
2018,09,28,10,11,19.90
2018,09,28,10,12,19.90
2018,09,28,10,13,19.90
2018,09,28,10,14,19.90
2018,09,28,10,15,19.90
2018,09,28,10,16,19.90
2018,09,28,10,17,20.00
2018,09,28,10,18,20.00
2018,09,28,10,19,20.10
2018,09,28,10,20,20.10
2018,09,28,10,21,20.10
2018,09,28,10,22,20.00
2018,09,28,10,23,20.00
2018,09,28,10,24,20.00
2018,09,28,10,25,20.00
2018,09,28,10,26,20.00
2018,09,28,10,27,20.00
2018,09,28,10,28,19.90
2018,09,28,10,29,20.00
2018,09,28,10,30,20.00
2018,09,28,10,31,20.00
2018,09,28,10,32,20.10
2018,09,28,10,33,20.10
2018,09,28,10,34,20.20
2018,09,28,10,35,20.20
2018,09,28,10,36,20.20
2018,09,28,10,37,20.20
2018,09,28,10,38,20.30
2018,09,28,10,39,20.30
2018,09,28,10,40,20.30
2018,09,28,10,41,20.30
2018,09,28,10,42,20.30
2018,09,28,10,43,20.20
2018,09,28,10,44,20.20
2018,09,28,10,45,20.20
2018,09,28,10,46,20.20
2018,09,28,10,47,20.20
2018,09,28,10,48,20.20
2018,09,28,10,49,20.20
2018,09,28,10,50,20.20
2018,09,28,10,51,20.20
2018,09,28,10,52,20.20
2018,09,28,10,53,20.20
2018,09,28,10,54,20.20
2018,09,28,10,55,20.20
2018,09,28,10,56,20.20
2018,09,28,10,57,20.20
2018,09,28,10,58,20.20
2018,09,28,10,59,20.20
2018,09,28,11,00,20.20
2018,09,28,11,01,20.20
2018,09,28,11,02,20.20
2018,09,28,11,03,20.20
2018,09,28,11,04,20.20
2018,09,28,11,05,20.10
2018,09,28,11,06,20.10
2018,09,28,11,07,20.10
2018,09,28,11,08,20.00
2018,09,28,11,09,20.00
2018,09,28,11,10,20.00
2018,09,28,11,11,20.00
2018,09,28,11,12,20.00
2018,09,28,11,13,20.10
2018,09,28,11,14,20.10
2018,09,28,11,15,20.20
2018,09,28,11,16,20.20
2018,09,28,11,17,20.20
2018,09,28,11,18,20.20
2018,09,28,11,19,20.20
2018,09,28,11,20,20.20
2018,09,28,11,21,20.20
2018,09,28,11,22,20.20
2018,09,28,11,23,20.30
2018,09,28,11,24,20.30
2018,09,28,11,25,20.30
2018,09,28,11,26,20.30
2018,09,28,11,27,20.30
2018,09,28,11,28,20.30
2018,09,28,11,29,20.40
2018,09,28,11,30,20.40
2018,09,28,11,31,20.50
2018,09,28,11,32,20.50
2018,09,28,11,33,20.60
2018,09,28,11,34,20.60
2018,09,28,11,35,20.50
2018,09,28,11,36,20.50
2018,09,28,11,37,20.50
2018,09,28,11,38,20.40
2018,09,28,11,39,20.40
2018,09,28,11,40,20.40
2018,09,28,11,41,20.40
2018,09,28,11,42,20.40
2018,09,28,11,43,20.40
2018,09,28,11,44,20.40
2018,09,28,11,45,20.40
2018,09,28,11,46,20.40
2018,09,28,11,47,20.40
2018,09,28,11,48,20.40
2018,09,28,11,49,20.40
2018,09,28,11,50,20.40
2018,09,28,11,51,20.40
2018,09,28,11,52,20.40
2018,09,28,11,53,20.40
2018,09,28,11,54,20.40
2018,09,28,11,55,20.40
2018,09,28,11,56,20.40
2018,09,28,11,57,20.50
2018,09,28,11,58,20.50
2018,09,28,11,59,20.50
2018,09,28,12,00,20.50
2018,09,28,12,01,20.50
2018,09,28,12,02,20.50
2018,09,28,12,03,20.60
2018,09,28,12,04,20.60
2018,09,28,12,05,20.60
2018,09,28,12,06,20.70
2018,09,28,12,07,20.70
2018,09,28,12,08,20.70
2018,09,28,12,09,20.60
2018,09,28,12,10,20.60
2018,09,28,12,11,20.60
2018,09,28,12,12,20.60
2018,09,28,12,13,20.60
2018,09,28,12,14,20.60
2018,09,28,12,15,20.60
2018,09,28,12,16,20.50
2018,09,28,12,17,20.50
2018,09,28,12,18,20.50
2018,09,28,12,19,20.50
2018,09,28,12,20,20.50
2018,09,28,12,21,20.50
2018,09,28,12,22,20.50
2018,09,28,12,23,20.60
2018,09,28,12,24,20.60
2018,09,28,12,25,20.60
2018,09,28,12,26,20.70
2018,09,28,12,27,20.70
2018,09,28,12,28,20.70
2018,09,28,12,29,20.70
2018,09,28,12,30,20.60
2018,09,28,12,31,20.60
2018,09,28,12,32,20.50
2018,09,28,12,33,20.50
2018,09,28,12,34,20.50
2018,09,28,12,35,20.50
2018,09,28,12,36,20.60
2018,09,28,12,37,20.60
2018,09,28,12,38,20.70
2018,09,28,12,39,20.80
2018,09,28,12,40,20.70
2018,09,28,12,41,20.70
2018,09,28,12,42,20.70
2018,09,28,12,43,20.70
2018,09,28,12,44,20.70
2018,09,28,12,45,20.70
2018,09,28,12,46,20.70
2018,09,28,12,47,20.70
2018,09,28,12,48,20.70
2018,09,28,12,49,20.60
2018,09,28,12,50,20.60
2018,09,28,12,51,20.60
2018,09,28,12,52,20.60
2018,09,28,12,53,20.60
2018,09,28,12,54,20.70
2018,09,28,12,55,20.70
2018,09,28,12,56,20.70
2018,09,28,12,57,20.70
2018,09,28,12,58,20.70
2018,09,28,12,59,20.70
2018,09,28,13,00,20.80
2018,09,28,13,01,20.80
2018,09,28,13,02,20.80
2018,09,28,13,03,20.90
2018,09,28,13,04,20.90
2018,09,28,13,05,20.90
2018,09,28,13,06,20.90
2018,09,28,13,07,20.80
2018,09,28,13,08,20.80
2018,09,28,13,09,20.80
2018,09,28,13,10,20.80
2018,09,28,13,11,20.80
2018,09,28,13,12,20.90
2018,09,28,13,13,20.90
2018,09,28,13,14,20.90
2018,09,28,13,15,21.00
2018,09,28,13,16,21.10
2018,09,28,13,17,21.10
2018,09,28,13,18,21.10
2018,09,28,13,19,21.10
2018,09,28,13,20,21.00
2018,09,28,13,21,21.00
2018,09,28,13,22,20.90
2018,09,28,13,23,20.90
2018,09,28,13,24,20.80
2018,09,28,13,25,20.80
2018,09,28,13,26,20.80
2018,09,28,13,27,20.80
2018,09,28,13,28,20.90
2018,09,28,13,29,21.00
2018,09,28,13,30,21.00
2018,09,28,13,31,21.10
2018,09,28,13,32,21.10
2018,09,28,13,33,21.10
2018,09,28,13,34,21.10
2018,09,28,13,35,21.20
2018,09,28,13,36,21.20
2018,09,28,13,37,21.20
2018,09,28,13,38,21.20
2018,09,28,13,39,21.10
2018,09,28,13,40,21.00
2018,09,28,13,41,21.00
2018,09,28,13,42,20.90
2018,09,28,13,43,20.90
2018,09,28,13,44,20.90
2018,09,28,13,45,21.00
2018,09,28,13,46,21.00
2018,09,28,13,47,21.00
2018,09,28,13,48,21.00
2018,09,28,13,49,20.90
2018,09,28,13,50,21.00
2018,09,28,13,51,21.00
2018,09,28,13,52,21.10
2018,09,28,13,53,21.10
2018,09,28,13,54,21.10
2018,09,28,13,55,21.10
2018,09,28,13,56,21.20
2018,09,28,13,57,21.20
2018,09,28,13,58,21.20
2018,09,28,13,59,21.20
2018,09,28,14,00,21.20
2018,09,28,14,01,21.20
2018,09,28,14,02,21.20
2018,09,28,14,03,21.30
2018,09,28,14,04,21.40
2018,09,28,14,05,21.40
2018,09,28,14,06,21.40
2018,09,28,14,07,21.30
2018,09,28,14,08,21.30
2018,09,28,14,09,21.40
2018,09,28,14,10,21.40
2018,09,28,14,11,21.40
2018,09,28,14,12,21.40
2018,09,28,14,13,21.40
2018,09,28,14,14,21.40
2018,09,28,14,15,21.40
2018,09,28,14,16,21.40
2018,09,28,14,17,21.40
2018,09,28,14,18,21.40
2018,09,28,14,19,21.40
2018,09,28,14,20,21.40
2018,09,28,14,21,21.50
2018,09,28,14,22,21.50
2018,09,28,14,23,21.50
2018,09,28,14,24,21.60
2018,09,28,14,25,21.60
2018,09,28,14,26,21.60
2018,09,28,14,27,21.70
2018,09,28,14,28,21.70
2018,09,28,14,29,21.70
2018,09,28,14,30,21.80
2018,09,28,14,31,21.80
2018,09,28,14,32,21.80
2018,09,28,14,33,21.80
2018,09,28,14,34,21.80
2018,09,28,14,35,21.80
2018,09,28,14,36,21.70
2018,09,28,14,37,21.70
2018,09,28,14,38,21.70
2018,09,28,14,39,21.80
2018,09,28,14,40,21.80
2018,09,28,14,41,21.80
2018,09,28,14,42,21.80
2018,09,28,14,43,21.80
2018,09,28,14,44,21.80
2018,09,28,14,45,21.80
2018,09,28,14,46,21.90
2018,09,28,14,47,22.00
2018,09,28,14,48,22.00
2018,09,28,14,49,22.10
2018,09,28,14,50,22.10
2018,09,28,14,51,22.00
2018,09,28,14,52,22.00
2018,09,28,14,53,21.90
2018,09,28,14,54,21.90
2018,09,28,14,55,22.00
2018,09,28,14,56,22.00
2018,09,28,14,57,22.00
2018,09,28,14,58,22.10
2018,09,28,14,59,22.00
2018,09,28,15,00,22.00
2018,09,28,15,01,22.00
2018,09,28,15,02,22.00
2018,09,28,15,03,22.00
2018,09,28,15,04,22.00
2018,09,28,15,05,22.00
2018,09,28,15,06,22.00
2018,09,28,15,07,22.00
2018,09,28,15,08,22.00
2018,09,28,15,09,22.00
2018,09,28,15,10,22.10
2018,09,28,15,11,22.10
2018,09,28,15,12,22.10
2018,09,28,15,13,22.10
2018,09,28,15,14,22.10
2018,09,28,15,15,22.10
2018,09,28,15,16,22.10
2018,09,28,15,17,22.10
2018,09,28,15,18,22.20
2018,09,28,15,19,22.20
2018,09,28,15,20,22.10
2018,09,28,15,21,22.10
2018,09,28,15,22,22.10
2018,09,28,15,23,22.20
2018,09,28,15,24,22.20
2018,09,28,15,25,22.20
2018,09,28,15,26,22.30
2018,09,28,15,27,22.30
2018,09,28,15,28,22.30
2018,09,28,15,29,22.30
2018,09,28,15,30,22.30
2018,09,28,15,31,22.20
2018,09,28,15,32,22.20
2018,09,28,15,33,22.20
2018,09,28,15,34,22.20
2018,09,28,15,35,22.20
2018,09,28,15,36,22.20
2018,09,28,15,37,22.20
2018,09,28,15,38,22.20
2018,09,28,15,39,22.20
2018,09,28,15,40,22.20
2018,09,28,15,41,22.30
2018,09,28,15,42,22.30
2018,09,28,15,43,22.30
2018,09,28,15,44,22.30
2018,09,28,15,45,22.30
2018,09,28,15,46,22.40
2018,09,28,15,47,22.40
2018,09,28,15,48,22.40
2018,09,28,15,49,22.40
2018,09,28,15,50,22.40
2018,09,28,15,51,22.40
2018,09,28,15,52,22.50
2018,09,28,15,53,22.50
2018,09,28,15,54,22.60
2018,09,28,15,55,22.50
2018,09,28,15,56,22.50
2018,09,28,15,57,22.50
2018,09,28,15,58,22.50
2018,09,28,15,59,22.60
2018,09,28,16,00,22.50
2018,09,28,16,01,22.50
2018,09,28,16,02,22.40
2018,09,28,16,03,22.40
2018,09,28,16,04,22.40
2018,09,28,16,05,22.50
2018,09,28,16,06,22.50
2018,09,28,16,07,22.50
2018,09,28,16,08,22.60
2018,09,28,16,09,22.60
2018,09,28,16,10,22.60
2018,09,28,16,11,22.60
2018,09,28,16,12,22.60
2018,09,28,16,13,22.60
2018,09,28,16,14,22.60
2018,09,28,16,15,22.70
2018,09,28,16,16,22.70
2018,09,28,16,17,22.70
2018,09,28,16,18,22.70
2018,09,28,16,19,22.70
2018,09,28,16,20,22.70
2018,09,28,16,21,22.70
2018,09,28,16,22,22.70
2018,09,28,16,23,22.60
2018,09,28,16,24,22.60
2018,09,28,16,25,22.60
2018,09,28,16,26,22.60
2018,09,28,16,27,22.60
2018,09,28,16,28,22.60
2018,09,28,16,29,22.60
2018,09,28,16,30,22.60
2018,09,28,16,31,22.70
2018,09,28,16,32,22.70
2018,09,28,16,33,22.70
2018,09,28,16,34,22.70
2018,09,28,16,35,22.70
2018,09,28,16,36,22.70
2018,09,28,16,37,22.70
2018,09,28,16,38,22.70
2018,09,28,16,39,22.70
2018,09,28,16,40,22.60
2018,09,28,16,41,22.60
2018,09,28,16,42,22.60
2018,09,28,16,43,22.60
2018,09,28,16,44,22.50
2018,09,28,16,45,22.50
2018,09,28,16,46,22.50
2018,09,28,16,47,22.50
2018,09,28,16,48,22.50
2018,09,28,16,49,22.50
2018,09,28,16,50,22.50
2018,09,28,16,51,22.50
2018,09,28,16,52,22.50
2018,09,28,16,53,22.50
2018,09,28,16,54,22.50
2018,09,28,16,55,22.50
2018,09,28,16,56,22.50
2018,09,28,16,57,22.50
2018,09,28,16,58,22.40
2018,09,28,16,59,22.50
2018,09,28,17,00,22.50
2018,09,28,17,01,22.50
2018,09,28,17,02,22.60
2018,09,28,17,03,22.60
2018,09,28,17,04,22.60
2018,09,28,17,05,22.60
2018,09,28,17,06,22.60
2018,09,28,17,07,22.60
2018,09,28,17,08,22.70
2018,09,28,17,09,22.70
2018,09,28,17,10,22.60
2018,09,28,17,11,22.70
2018,09,28,17,12,22.60
2018,09,28,17,13,22.60
2018,09,28,17,14,22.60
2018,09,28,17,15,22.60
2018,09,28,17,16,22.60
2018,09,28,17,17,22.60
2018,09,28,17,18,22.60
2018,09,28,17,19,22.60
2018,09,28,17,20,22.60